User: anonymous   Login
Location: Csohesd
(46.2500°N, 22.6167°E)
Time: 15:05:11
(UTC+00:00)
Language:

Cosmos 724 - Orbit

View from above orbital plane
View from above orbital plane
View from above satellite
View from above satellite

Ground track
Ground track

The orbit data is extracted from the following two-line orbital elements,

1  7727U 75025A   22020.15057512 -.00000050  00000-0  25655-4 0  9997
2  7727  65.5898 276.7545 0050792 152.1524 208.2284 13.98936980390874
Epoch (UTC): 20 January 2022 03:36:49
Eccentricity: 0.0050792
inclination: 65.5898°
perigee height: 860 km
apogee height: 934 km
right ascension of ascending node: 276.7545°
argument of perigee: 152.1524°
revolutions per day: 13.98936980
mean anomaly at epoch: 208.2284°
orbit number at epoch: 39087

The dashed part of the orbit path shows where the satellite is in the earth's shadow,  

DLR